OBJECT X, 57187

Orbit data source: Space-Track

You're viewing an Uncataloged Satellite

Recently launched and/or uncataloged satellites may have evolving metadata. Metadata may include but not limited to: Owner, Maufacturer, Bus, Motor, and Mission.

OBJECT X, 57187 is a satellite in SSO that was launched on Tue, 27 Jun 2023 UTC via a SOYUZ-2-1B launch vehicle from the Vostochny Cosmodrome (VOSTO). Unknown objects in Earth's orbit typically refer to objects detected orbiting the Earth but have not yet been identified or cataloged. These objects could be anything from previously untracked satellites, spent rocket stages, debris from satellite collisions, or even natural meteoroids temporarily captured by Earth's gravity.

Loading next visibility...
Identifier
57187, 2023-091X
Orbit
SSO
Country
Flag of TBDTBD
Related business
Manufacturer
Sputniks
Mission
Operational Commercial Imaging
Bus & Motor
CUBESAT 3U, Unknown motor
Mass
3.4 kg wet, 3.4 kg dry
Launch date (UTC)
2023-06-27 (3 years ago)
Launch vehicle
SOYUZ-2-1B
Launch site
Vostochny Cosmodrome (VOSTO)
Object type
Unknown
Shape & HBR
Box, 0.1 m
Radar Cross Section
0.035 m², Medium (>0.1 m² and < 1m²)

Expand to show TLE details & history
Last TLE update: 5 hours ago

TLE from 5 hours ago
0 OBJECT X
1 57187U 23091X   26162.94658874  .00008245  00000-0  31793-3 0  9996
2 57187  97.5097 226.7345 0010912 110.0732 250.1682 15.26524550163518
Epoch: 2026-06-11T22:43Z
TLE epoch observation values (Epoch: 2026-06-11T22:43:05.267Z)
Latitude
0.00001°
Longitude
-14.32054°
Altitude
491.856 km
Speed
7.618 km/s
True Right ascension
15h 06m 56s
True Declination
0° 00' 00"
Sunlit
Object was in full shadow at epoch
Visualization orbit readout
Latitude
Unknown
Longitude
Unknown
Altitude
Unknown
Speed
Unknown
Apparent Right ascension
Unknown
Apparent Declination
Unknown
Sunlit
N/A
Visualization observer readout
Local Sidereal Time
14:27:46
Azimuth
Unknown
Elevation
Unknown
Doppler factor
Unknown
Orbital elements
Apogee altitude
490.66 km
Perigee altitude
475.686 km
Semi-major axis
6,861.31 km
Eccentricity
0.00109
Inclination
97.5097°
RAAN
226.7345°
Arg. of periapsis
110.0732°
True anomaly
250.05063°
Mean anomaly
250.1682°
Eccentric anomaly
250.10941°
Mean motion
3.81885 °/min
Orbital period
94.27 mins
BSTAR
0.00031793
Loading maneuver chart data...
Computing Atmospheric mass density...
Loading historical data...
Loading historical data...
Loading historical data...
Loading historical data...
Loading historical data...
Loading historical data...
Loading historical data...

Documentation

Showing up to 5 results
|